Date String (YYYY-MM-DD hh:mm:ss) UTC,Instrument flags,Ambient pressure (hPa),Sample flow (lpm),Bypass flow (lpm),Sample temperature (°C),Ambient temperature (°C),ASC tube jacket temperature (°C),LED temperature (°C),Box temperature (°C),Sample RH (%),Span deviation,Mass concentration (μg/m³),Mass concentration (μg/m³),Mass concentration (μg/m³)
DateTimeUTC,F1_M11,P_M11,Q1_M11,Q2_M11,T1_M11,T2_M11,T3_M11,T4_M11,T5_M11,U1_M11,ZSPAN_M11,X0_M11,X2_M11,X1_M11
2022-02-19 10:00:00,,0829.4,4.99,0.00,22.4,21.7,00.0,31.4,24.1,09.0,0000.0,0001.51,0000.73,0000.51
2022-02-19 10:01:00,,0829.4,5.01,0.00,22.4,21.6,00.0,31.4,24.1,09.1,0000.0,0001.70,0000.81,0000.53
2022-02-19 10:02:00,,0829.4,4.99,0.00,22.3,21.6,00.0,31.4,24.0,09.1,0000.0,0002.76,0000.89,0000.56
2022-02-19 10:03:00,,0829.3,5.00,0.00,22.3,21.5,00.0,31.4,24.0,09.1,0000.0,0003.05,0000.97,0000.58
2022-02-19 10:04:00,,0829.3,5.02,0.00,22.3,21.5,00.0,31.3,24.0,09.1,0000.0,0003.02,0000.97,0000.61
2022-02-19 10:05:00,,0829.5,5.00,0.00,22.2,21.5,00.0,31.3,24.0,09.0,0000.0,0003.68,0000.95,0000.62
2022-02-19 10:06:00,,0829.5,4.99,0.00,22.2,21.5,00.0,31.3,24.0,09.0,0000.0,0003.69,0000.96,0000.63
2022-02-19 10:07:00,,0829.7,5.02,0.00,22.2,21.5,00.0,31.3,23.9,09.0,0000.0,0003.67,0000.96,0000.62
2022-02-19 10:08:00,,0829.3,4.99,0.00,22.2,21.5,00.0,31.3,23.9,09.1,0000.0,0003.60,0000.98,0000.64
2022-02-19 10:09:00,,0829.4,5.00,0.00,22.2,21.8,00.0,31.3,24.0,09.1,0000.0,0003.62,0001.03,0000.66
2022-02-19 10:10:00,,0829.3,5.00,0.00,22.4,22.5,00.0,31.3,24.2,09.0,0000.0,0003.74,0001.06,0000.67
2022-02-19 10:11:00,,0829.2,4.99,0.00,22.5,23.1,00.0,31.4,24.5,08.9,0000.0,0003.79,0001.09,0000.68
2022-02-19 10:12:00,,0829.2,5.01,0.00,22.6,23.0,00.0,31.4,24.6,08.8,0000.0,0003.70,0001.06,0000.67
2022-02-19 10:13:00,,0829.2,4.99,0.00,22.6,22.8,00.0,31.4,24.6,08.8,0000.0,0002.97,0001.00,0000.65
2022-02-19 10:14:00,,0829.3,5.01,0.00,22.6,22.6,00.0,31.4,24.5,08.9,0000.0,0002.36,0000.92,0000.64
2022-02-19 10:15:00,,0829.2,5.01,0.00,22.6,22.5,00.0,31.4,24.4,08.9,0000.0,0002.40,0000.89,0000.63
2022-02-19 10:16:00,,0829.3,4.99,0.00,22.6,22.4,00.0,31.4,24.4,09.0,0000.0,0002.02,0000.94,0000.64
2022-02-19 10:17:00,,0829.2,4.99,0.00,22.6,22.2,00.0,31.4,24.3,09.0,0000.0,0002.21,0000.96,0000.66
2022-02-19 10:18:00,,0829.2,5.00,0.00,22.5,22.1,00.0,31.5,24.3,09.0,0000.0,0003.28,0001.00,0000.70
2022-02-19 10:19:00,,0829.1,5.00,0.00,22.5,22.1,00.0,31.5,24.2,08.9,0000.0,0003.27,0001.00,0000.70
2022-02-19 10:20:00,,0829.1,5.01,0.00,22.5,22.0,00.0,31.5,24.2,09.0,0000.0,0003.20,0000.97,0000.70
2022-02-19 10:21:00,,0829.1,4.99,0.00,22.4,21.9,00.0,31.5,24.1,09.0,0000.0,0003.03,0000.92,0000.69
2022-02-19 10:22:00,,0829.0,5.01,0.00,22.4,21.8,00.0,31.4,24.1,09.0,0000.0,0003.00,0000.90,0000.69
2022-02-19 10:23:00,,0829.1,5.00,0.00,22.4,21.7,00.0,31.4,24.1,09.0,0000.0,0002.96,0000.89,0000.70
2022-02-19 10:24:00,,0829.1,5.00,0.00,22.3,21.7,00.0,31.4,24.0,09.0,0000.0,0002.95,0000.89,0000.71
2022-02-19 10:25:00,,0829.1,5.01,0.00,22.3,21.6,00.0,31.4,24.0,09.0,0000.0,0003.03,0000.91,0000.70
2022-02-19 10:26:00,,0829.1,4.99,0.00,22.3,21.6,00.0,31.4,24.0,09.0,0000.0,0002.92,0000.90,0000.69
2022-02-19 10:27:00,,0829.1,5.01,0.00,22.3,21.6,00.0,31.4,24.0,09.0,0000.0,0002.72,0000.85,0000.67
2022-02-19 10:28:00,,0829.0,5.00,0.00,22.3,21.5,00.0,31.4,24.0,09.1,0000.0,0002.27,0000.82,0000.65
2022-02-19 10:29:00,,0829.0,4.99,0.00,22.2,21.4,00.0,31.3,24.0,09.1,0000.0,0001.22,0000.80,0000.63
2022-02-19 10:30:00,,0829.0,5.00,0.00,22.2,21.4,00.0,31.3,23.9,09.1,0000.0,0001.21,0000.79,0000.63
2022-02-19 10:31:00,,0829.0,5.02,0.00,22.2,21.4,00.0,31.3,23.9,09.0,0000.0,0001.23,0000.81,0000.62
2022-02-19 10:32:00,,0829.0,4.99,0.00,22.2,21.4,00.0,31.3,23.9,09.0,0000.0,0001.23,0000.82,0000.62
2022-02-19 10:33:00,,0829.0,5.00,0.00,22.2,21.4,00.0,31.3,23.9,09.0,0000.0,0001.17,0000.79,0000.61
2022-02-19 10:34:00,,0829.0,5.01,0.00,22.2,21.4,00.0,31.2,23.9,08.9,0000.0,0001.18,0000.79,0000.59
2022-02-19 10:35:00,,0828.9,5.00,0.00,22.2,21.4,00.0,31.2,23.9,09.0,0000.0,0001.25,0000.82,0000.58
2022-02-19 10:36:00,,0829.0,4.99,0.00,22.2,21.4,00.0,31.2,23.9,09.1,0000.0,0001.23,0000.82,0000.59
2022-02-19 10:37:00,,0829.0,4.99,0.00,22.2,21.4,00.0,31.2,23.9,09.0,0000.0,0001.21,0000.82,0000.60
2022-02-19 10:38:00,,0829.0,5.01,0.00,22.2,21.5,00.0,31.2,23.9,09.1,0000.0,0001.29,0000.84,0000.60
2022-02-19 10:39:00,,0828.9,5.01,0.00,22.2,21.5,00.0,31.2,23.9,09.1,0000.0,0001.33,0000.86,0000.61
2022-02-19 10:40:00,,0828.9,4.99,0.00,22.2,21.5,00.0,31.2,23.9,09.2,0000.0,0001.67,0000.91,0000.60
2022-02-19 10:41:00,,0828.9,5.00,0.00,22.2,21.5,00.0,31.2,23.9,09.2,0000.0,0001.75,0000.93,0000.59
2022-02-19 10:42:00,,0828.9,4.99,0.00,22.2,21.5,00.0,31.2,23.9,09.3,0000.0,0001.72,0000.91,0000.59
2022-02-19 10:43:00,,0828.9,5.00,0.00,22.1,21.4,00.0,31.2,23.9,09.3,0000.0,0001.87,0000.93,0000.59
2022-02-19 10:44:00,,0828.9,5.02,0.00,22.1,21.5,00.0,31.2,23.9,09.3,0000.0,0002.10,0001.00,0000.59
2022-02-19 10:45:00,,0828.9,4.99,0.00,22.1,21.5,00.0,31.1,23.9,09.3,0000.0,0002.25,0001.07,0000.60
2022-02-19 10:46:00,,0828.8,4.99,0.00,22.1,21.6,00.0,31.2,23.9,09.4,0000.0,0002.42,0001.08,0000.60
2022-02-19 10:47:00,,0828.8,5.01,0.00,22.2,22.3,00.0,31.2,24.1,09.3,0000.0,0002.83,0001.12,0000.59
2022-02-19 10:48:00,,0828.9,4.99,0.00,22.4,23.0,00.0,31.2,24.3,09.3,0000.0,0002.90,0001.15,0000.59
2022-02-19 10:49:00,,0829.2,5.01,0.00,22.5,23.0,00.0,31.3,24.4,09.2,0000.0,0002.92,0001.17,0000.60
2022-02-19 10:50:00,,0829.3,5.01,0.00,22.5,22.9,00.0,31.3,24.5,09.2,0000.0,0002.97,0001.17,0000.60
2022-02-19 10:51:00,,0829.1,5.00,0.00,22.5,22.7,00.0,31.3,24.5,09.2,0000.0,0002.93,0001.19,0000.60
2022-02-19 10:52:00,,0828.7,5.00,0.00,22.5,22.5,00.0,31.3,24.4,09.1,0000.0,0003.16,0001.22,0000.61
2022-02-19 10:53:00,,0828.7,5.00,0.00,22.5,22.4,00.0,31.3,24.4,09.1,0000.0,0003.34,0001.25,0000.61
2022-02-19 10:54:00,,0828.7,5.00,0.00,22.6,22.3,00.0,31.3,24.4,09.1,0000.0,0003.35,0001.27,0000.62
2022-02-19 10:55:00,,0828.7,5.00,0.00,22.6,22.2,00.0,31.4,24.4,09.0,0000.0,0003.25,0001.25,0000.62
2022-02-19 10:56:00,,0828.6,4.99,0.00,22.6,22.2,00.0,31.4,24.4,09.0,0000.0,0003.28,0001.25,0000.63
2022-02-19 10:57:00,,0828.9,4.99,0.00,22.6,22.1,00.0,31.4,24.4,09.1,0000.0,0003.24,0001.27,0000.63
2022-02-19 10:58:00,,0828.6,5.01,0.00,22.6,22.1,00.0,31.4,24.4,09.1,0000.0,0003.56,0001.29,0000.64
2022-02-19 10:59:00,,0828.7,4.99,0.00,22.6,22.0,00.0,31.4,24.4,09.1,0000.0,0003.70,0001.31,0000.65
